Location: Newark
(49.1000°N, 0.4667°W)
Time: 14:48:21
(UTC+00:00)

XW-2A - Visible Passes

Search period start: 12 June 2021 00:00
Search period end: 22 June 2021 00:00
Orbit: 421 x 439 km, 97.2° (Epoch: 12 June)

Date Brightness Start Highest point End Pass type
(mag) Time Alt. Az. Time Alt. Az. Time Alt. Az.
12 Jun ? 21:24:06 10° SW 21:26:35 20° W 21:29:06 10° NW visible
14 Jun ? 21:35:11 10° SW 21:37:13 16° W 21:39:16 10° NW visible
15 Jun ? 20:52:56 10° S 20:56:05 48° W 20:59:15 10° NNW visible
16 Jun ? 21:46:32 10° WSW 21:47:51 12° W 21:49:08 10° WNW visible
17 Jun ? 21:03:37 10° SSW 21:06:38 35° W 21:09:39 10° NNW visible
19 Jun ? 21:14:23 10° SSW 21:17:09 26° W 21:19:58 10° NW visible
21 Jun ? 21:25:12 10° SW 21:27:40 20° W 21:30:11 10° NW visible
